📊 Raw Sensor Data
Showing records 47901 to 47925 of 85,092 total
| ID | Distance (ft) | Battery V | Battery A | Int Temp (°F) | Int Humid (%) | Ext Temp (°F) | Solar V | RSSI | SNR | Time Stamp |
|---|---|---|---|---|---|---|---|---|---|---|
| 37204 | 15.4 | 3.84 | -5 | 45 | 41 | 46 | 0.00 | -77 | 8 | 04/08/2025 03:00 AM |
| 37203 | 15.3 | 3.71 | -5 | 45 | 41 | 45 | 0.00 | -77 | 8 | 04/08/2025 02:45 AM |
| 37202 | 15.4 | 3.76 | -5 | 46 | 41 | 47 | 0.10 | -77 | 8 | 04/08/2025 02:30 AM |
| 37201 | 15.4 | 3.64 | -5 | 47 | 41 | 46 | 0.00 | -77 | 8 | 04/08/2025 02:15 AM |
| 37200 | 15.4 | 3.65 | -5 | 48 | 41 | 50 | 0.00 | -77 | 8 | 04/08/2025 02:00 AM |
| 37199 | 15.4 | 3.65 | -5 | 48 | 41 | 52 | 0.00 | -78 | 8 | 04/08/2025 01:45 AM |
| 37198 | 15.3 | 3.65 | -5 | 48 | 41 | 50 | 0.10 | -77 | 9 | 04/08/2025 01:30 AM |
| 37197 | 15.4 | 3.65 | -5 | 49 | 41 | 49 | 0.00 | -77 | 8 | 04/08/2025 01:15 AM |
| 37196 | 15.3 | 3.83 | -5 | 49 | 41 | 51 | 0.00 | -77 | 8 | 04/08/2025 01:00 AM |
| 37195 | 15.3 | 3.65 | -5 | 49 | 41 | 53 | 0.10 | -77 | 8 | 04/08/2025 12:45 AM |
| 37194 | -- | 3.65 | -5 | 48 | 42 | 49 | 0.10 | -78 | 9 | 04/08/2025 12:30 AM |
| 37193 | -- | 3.83 | -5 | 48 | 42 | 48 | 0.00 | -77 | 8 | 04/08/2025 12:15 AM |
| 37192 | -- | 3.65 | -5 | 50 | 42 | 50 | 0.00 | -77 | 8 | 04/08/2025 12:00 AM |
| 37191 | -- | 3.84 | -5 | 50 | 42 | 51 | 0.00 | -77 | 8 | 04/07/2025 11:45 PM |
| 37190 | -- | 3.64 | -5 | 51 | 42 | 53 | 0.00 | -78 | 8 | 04/07/2025 11:30 PM |
| 37189 | -- | 3.66 | -5 | 51 | 42 | 52 | 0.00 | -78 | 8 | 04/07/2025 11:15 PM |
| 37188 | -- | 3.66 | -5 | 53 | 42 | 54 | 0.00 | -78 | 8 | 04/07/2025 11:00 PM |
| 37187 | -- | 3.66 | -5 | 53 | 42 | 54 | 0.00 | -78 | 8 | 04/07/2025 10:45 PM |
| 37186 | -- | 3.65 | -5 | 54 | 42 | 54 | 0.00 | -78 | 9 | 04/07/2025 10:30 PM |
| 37185 | -- | 3.66 | -5 | 54 | 42 | 55 | 0.10 | -80 | 8 | 04/07/2025 10:15 PM |
| 37184 | -- | 3.84 | -5 | 55 | 42 | 56 | 0.00 | -80 | 8 | 04/07/2025 10:00 PM |
| 37183 | -- | 3.64 | -5 | 55 | 43 | 56 | 0.00 | -78 | 8 | 04/07/2025 09:45 PM |
| 37182 | -- | 3.64 | -5 | 56 | 43 | 56 | 0.10 | -81 | 8 | 04/07/2025 09:30 PM |
| 37181 | -- | 3.66 | -5 | 56 | 43 | 57 | 0.00 | -81 | 8 | 04/07/2025 09:15 PM |
| 37180 | 15.4 | 3.67 | -5 | 57 | 43 | 57 | 0.00 | -78 | 8 | 04/07/2025 09:00 PM |